TimeEDT,TemperatureF,Dew PointF,Humidity,Sea Level PressureIn,VisibilityMPH,Wind Direction,Wind SpeedMPH,Gust SpeedMPH,PrecipitationIn,Events,Conditions,WindDirDegrees,DateUTC
12:15 AM,71.6,69.8,94,29.61,7.0,SSW,12.7,-,0.04,Rain,Heavy Rain,200,2011-10-19 04:15:00
12:35 AM,71.6,68.0,88,29.59,5.0,SSW,8.1,-,0.10,Rain,Heavy Rain,210,2011-10-19 04:35:00
12:55 AM,71.6,68.0,88,29.59,10.0,Calm,Calm,-,0.10,,Overcast,0,2011-10-19 04:55:00
1:15 AM,71.6,68.0,88,29.58,10.0,SSW,3.5,-,0.01,Rain,Rain,210,2011-10-19 05:15:00
1:35 AM,71.6,68.0,88,29.58,10.0,South,4.6,-,0.02,,Overcast,190,2011-10-19 05:35:00
1:55 AM,71.6,68.0,88,29.57,10.0,SSW,4.6,-,0.02,,Mostly Cloudy,210,2011-10-19 05:55:00
2:15 AM,69.8,68.0,94,29.57,10.0,South,4.6,-,N/A,,Mostly Cloudy,180,2011-10-19 06:15:00
2:35 AM,69.8,68.0,94,29.56,10.0,SE,4.6,-,N/A,,Overcast,140,2011-10-19 06:35:00
2:55 AM,69.8,68.0,94,29.55,7.0,SE,4.6,-,0.02,Rain,Heavy Rain,140,2011-10-19 06:55:00
3:15 AM,69.8,68.0,94,29.53,10.0,Calm,Calm,-,N/A,,Overcast,0,2011-10-19 07:15:00
3:35 AM,69.8,68.0,94,29.52,10.0,Calm,Calm,-,N/A,,Mostly Cloudy,0,2011-10-19 07:35:00
3:55 AM,69.8,68.0,94,29.51,10.0,SSE,5.8,-,N/A,,Mostly Cloudy,150,2011-10-19 07:55:00
4:15 AM,69.8,68.0,94,29.50,10.0,SSE,5.8,-,N/A,,Overcast,150,2011-10-19 08:15:00
4:35 AM,69.8,68.0,94,29.49,10.0,SSE,5.8,-,N/A,Rain,Light Rain,150,2011-10-19 08:35:00
4:55 AM,69.8,68.0,94,29.48,10.0,SSE,4.6,-,N/A,,Overcast,160,2011-10-19 08:55:00
5:15 AM,71.6,68.0,88,29.46,10.0,Calm,Calm,-,N/A,,Overcast,0,2011-10-19 09:15:00
5:55 AM,69.8,68.0,94,29.45,10.0,East,3.5,-,0.01,,Overcast,90,2011-10-19 09:55:00
6:15 AM,71.6,68.0,88,29.44,7.0,East,3.5,-,N/A,Rain,Heavy Rain,100,2011-10-19 10:15:00
6:35 AM,71.6,68.0,88,29.44,7.0,Calm,Calm,-,0.01,Rain,Light Rain,0,2011-10-19 10:35:00
6:55 AM,71.6,68.0,88,29.44,7.0,ESE,3.5,-,0.02,,Light Drizzle,120,2011-10-19 10:55:00
7:15 AM,71.6,69.8,94,29.44,5.0,SE,4.6,-,N/A,,Light Drizzle,130,2011-10-19 11:15:00
7:35 AM,71.6,69.8,94,29.44,7.0,SE,3.5,-,N/A,,Overcast,140,2011-10-19 11:35:00
7:55 AM,71.6,69.8,94,29.43,10.0,SE,3.5,-,N/A,,Overcast,130,2011-10-19 11:55:00
8:15 AM,71.6,69.8,94,29.43,10.0,South,4.6,-,N/A,,Overcast,170,2011-10-19 12:15:00
8:35 AM,71.6,69.8,94,29.44,5.0,SSW,6.9,-,N/A,Rain,Light Rain,210,2011-10-19 12:35:00
8:55 AM,73.4,69.8,88,29.43,10.0,SW,6.9,-,N/A,,Overcast,230,2011-10-19 12:55:00
9:15 AM,73.4,71.6,94,29.43,10.0,SW,6.9,-,N/A,,Overcast,230,2011-10-19 13:15:00
9:35 AM,73.4,71.6,94,29.42,10.0,WSW,6.9,-,N/A,,Overcast,240,2011-10-19 13:35:00
9:55 AM,73.4,69.8,88,29.42,10.0,WSW,9.2,-,N/A,,Overcast,240,2011-10-19 13:55:00
10:15 AM,77.0,71.6,83,29.41,10.0,WSW,11.5,-,N/A,,Overcast,240,2011-10-19 14:15:00
10:35 AM,77.0,69.8,78,29.40,10.0,West,9.2,-,N/A,,Overcast,260,2011-10-19 14:35:00
10:55 AM,77.0,69.8,78,29.40,10.0,SW,8.1,-,N/A,,Mostly Cloudy,230,2011-10-19 14:55:00
11:15 AM,78.8,69.8,74,29.39,10.0,West,9.2,-,N/A,,Mostly Cloudy,270,2011-10-19 15:15:00
11:35 AM,77.0,69.8,78,29.39,10.0,WSW,10.4,-,N/A,,Overcast,250,2011-10-19 15:35:00
11:55 AM,77.0,68.0,74,29.40,10.0,WSW,9.2,-,N/A,,Overcast,250,2011-10-19 15:55:00
12:15 PM,78.8,69.8,74,29.40,10.0,WSW,8.1,-,N/A,,Overcast,240,2011-10-19 16:15:00
12:35 PM,78.8,68.0,69,29.40,10.0,SW,8.1,-,N/A,,Mostly Cloudy,230,2011-10-19 16:35:00
12:55 PM,78.8,68.0,69,29.39,10.0,WSW,11.5,-,N/A,,Mostly Cloudy,240,2011-10-19 16:55:00
1:15 PM,80.6,66.2,61,29.39,10.0,WSW,12.7,-,N/A,,Scattered Clouds,250,2011-10-19 17:15:00
1:35 PM,82.4,64.4,54,29.38,10.0,WSW,13.8,19.6,N/A,,Scattered Clouds,240,2011-10-19 17:35:00
2:15 PM,78.8,62.6,57,29.38,10.0,WSW,13.8,18.4,N/A,,Mostly Cloudy,250,2011-10-19 18:15:00
2:35 PM,82.4,60.8,48,29.38,10.0,WSW,18.4,25.3,N/A,,Scattered Clouds,240,2011-10-19 18:35:00
2:55 PM,82.4,62.6,51,29.38,10.0,SW,16.1,-,N/A,,Scattered Clouds,230,2011-10-19 18:55:00
3:15 PM,82.4,62.6,51,29.38,10.0,SW,12.7,-,N/A,,Scattered Clouds,220,2011-10-19 19:15:00
3:35 PM,82.4,60.8,48,29.38,10.0,SW,16.1,25.3,N/A,,Scattered Clouds,230,2011-10-19 19:35:00
4:15 PM,80.6,64.4,58,29.39,10.0,South,10.4,24.2,N/A,,Scattered Clouds,190,2011-10-19 20:15:00
4:35 PM,78.8,64.4,61,29.39,10.0,South,13.8,25.3,N/A,,Clear,190,2011-10-19 20:35:00
4:55 PM,77.0,64.4,65,29.40,10.0,SSW,12.7,24.2,N/A,,Clear,200,2011-10-19 20:55:00
5:15 PM,77.0,64.4,65,29.41,10.0,SSW,19.6,29.9,N/A,,Scattered Clouds,200,2011-10-19 21:15:00
5:35 PM,73.4,64.4,73,29.41,10.0,SSW,15.0,23.0,N/A,,Scattered Clouds,210,2011-10-19 21:35:00
5:55 PM,73.4,64.4,73,29.42,10.0,SSW,12.7,20.7,N/A,,Mostly Cloudy,210,2011-10-19 21:55:00
6:15 PM,73.4,59.0,61,29.43,10.0,SW,18.4,27.6,N/A,,Scattered Clouds,230,2011-10-19 22:15:00
6:35 PM,71.6,59.0,64,29.45,10.0,West,21.9,29.9,N/A,,Mostly Cloudy,270,2011-10-19 22:35:00
6:55 PM,68.0,57.2,68,29.48,10.0,West,17.3,28.8,N/A,,Mostly Cloudy,260,2011-10-19 22:55:00
7:15 PM,64.4,53.6,68,29.51,10.0,WSW,20.7,31.1,N/A,,Mostly Cloudy,240,2011-10-19 23:15:00
7:35 PM,62.6,51.8,68,29.53,10.0,West,18.4,27.6,N/A,,Mostly Cloudy,260,2011-10-19 23:35:00
7:55 PM,60.8,46.4,59,29.55,10.0,West,18.4,29.9,N/A,,Scattered Clouds,260,2011-10-19 23:55:00
8:15 PM,59.0,44.6,59,29.57,10.0,West,20.7,36.8,N/A,,Clear,260,2011-10-20 00:15:00
8:55 PM,59.0,44.6,59,29.60,10.0,WSW,26.5,33.4,N/A,,Mostly Cloudy,250,2011-10-20 00:55:00
9:15 PM,59.0,42.8,55,29.61,10.0,WSW,17.3,27.6,N/A,,Overcast,250,2011-10-20 01:15:00
9:35 PM,59.0,42.8,55,29.63,10.0,West,21.9,31.1,N/A,,Overcast,260,2011-10-20 01:35:00
9:55 PM,59.0,44.6,59,29.64,10.0,WSW,16.1,24.2,N/A,,Overcast,250,2011-10-20 01:55:00
10:15 PM,55.4,41.0,58,29.66,10.0,WSW,23.0,33.4,N/A,,Overcast,250,2011-10-20 02:15:00
10:35 PM,55.4,39.2,54,29.67,10.0,WSW,16.1,32.2,N/A,,Scattered Clouds,250,2011-10-20 02:35:00
10:55 PM,53.6,39.2,58,29.68,10.0,West,18.4,25.3,N/A,,Scattered Clouds,260,2011-10-20 02:55:00
11:15 PM,53.6,37.4,54,29.69,10.0,WSW,15.0,21.9,N/A,,Scattered Clouds,250,2011-10-20 03:15:00
11:35 PM,53.6,37.4,54,29.70,10.0,West,11.5,-,N/A,,Clear,260,2011-10-20 03:35:00
11:55 PM,51.8,39.2,62,29.69,10.0,WSW,12.7,19.6,N/A,,Clear,250,2011-10-20 03:55:00